Weather History for KMDS - September, 2013

Change the Weather History Date:

Sunday, September 1, 2013

  Actual Average Record
Temperature  
Mean Temperature 63 °F -  
Max Temperature 73 °F 78 °F 86 °F (2011)
Min Temperature 53 °F 55 °F 50 °F (2010)
Degree Days  
Heating Degree Days 2    
Growing Degree Days 13 (Base 50)    
Moisture  
Dew Point 58 °F    
Average Humidity 82    
Maximum Humidity 100    
Minimum Humidity 60    
Precipitation  
Precipitation 0.00 in - - ()
Sea Level Pressure  
Sea Level Pressure 29.99 in    
Wind  
Wind Speed 9 mph (NNW)    
Max Wind Speed 21 mph    
Max Gust Speed 26 mph    
Visibility 10 miles    
Events      
Averages and records for this station are not official NWS values.
T = Trace of Precipitation, MM = Missing Value Source: NWS Daily Summary

Daily Weather History Graph

Daily Weather History Graph

Search for Another Location

Airport or City:

Trip Planner

Search our weather history database for the weather conditions in past years. The results will help you decide how hot, cold, wet, or windy it might be!

Date:

Astronomy

Sep. 01, 2013 Rise Set
Actual Time 6:51 AM CDT 8:03 PM CDT
Civil Twilight 6:22 AM CDT 8:33 PM CDT
Nautical Twilight 5:46 AM CDT 9:08 PM CDT
Astronomical Twilight 5:08 AM CDT 9:46 PM CDT
Moon 3:09 AM CDT (9/1) 5:46 PM CDT (9/1)
Length of Visible Light 14h 11m
Length of Day
13h 11m
Waning Crescent, 13% of the Moon is Illuminated
Sep 1
Waning Crescent
Sep 5
New
Sep 12
First Quarter
Sep 19
Full
Sep 26
Last Quarter

Hourly Weather History & Observations

Time (CDT) Temp. Dew Point Humidity Pressure Visibility Wind Dir Wind Speed Gust Speed Precip Events Conditions
12:10 AM 69.8 °F 59.0 °F 68% 29.92 in 10.0 mi North 8.1 mph - N/A   Overcast
12:30 AM 69.8 °F 59.0 °F 68% 29.92 in 10.0 mi North 8.1 mph - N/A   Overcast
12:50 AM 68.0 °F 59.0 °F 73% 29.92 in 10.0 mi North 6.9 mph - N/A   Overcast
1:10 AM 64.4 °F 59.0 °F 83% 29.92 in 10.0 mi North 8.1 mph - N/A   Partly Cloudy
1:30 AM 64.4 °F 59.0 °F 83% 29.91 in 10.0 mi North 6.9 mph - N/A   Clear
1:50 AM 62.6 °F 59.0 °F 88% 29.91 in 10.0 mi NNW 8.1 mph - N/A   Clear
2:10 AM 59.0 °F 59.0 °F 100% 29.91 in 10.0 mi NW 8.1 mph - N/A   Clear
2:30 AM 59.0 °F 59.0 °F 100% 29.91 in 10.0 mi NW 8.1 mph - N/A   Clear
2:50 AM 57.2 °F 57.2 °F 100% 29.91 in 10.0 mi NW 8.1 mph - N/A   Clear
3:10 AM 57.2 °F 57.2 °F 100% 29.91 in 10.0 mi NW 8.1 mph - N/A   Clear
3:30 AM 57.2 °F 57.2 °F 100% 29.91 in 10.0 mi NW 5.8 mph - N/A   Clear
3:50 AM 55.4 °F 55.4 °F 100% 29.92 in 10.0 mi NW 5.8 mph - N/A   Clear
4:10 AM 55.4 °F 55.4 °F 100% 29.91 in 10.0 mi NW 6.9 mph - N/A   Clear
4:30 AM 55.4 °F 55.4 °F 100% 29.92 in 10.0 mi NW 5.8 mph - N/A   Clear
4:50 AM 55.4 °F 55.4 °F 100% 29.93 in 10.0 mi NW 4.6 mph - N/A   Clear
5:10 AM 55.4 °F 55.4 °F 100% 29.93 in 10.0 mi WNW 6.9 mph - N/A   Clear
5:30 AM 55.4 °F 55.4 °F 100% 29.94 in 10.0 mi WNW 6.9 mph - N/A   Clear
5:50 AM 55.4 °F 55.4 °F 100% 29.94 in 10.0 mi NW 8.1 mph - N/A   Clear
6:10 AM 55.4 °F 55.4 °F 100% 29.95 in 10.0 mi NW 5.8 mph - N/A   Clear
6:30 AM 55.4 °F 55.4 °F 100% 29.96 in 10.0 mi NW 6.9 mph - N/A   Clear
6:50 AM 53.6 °F 53.6 °F 100% 29.96 in 10.0 mi NW 5.8 mph - N/A   Clear
7:10 AM 55.4 °F 55.4 °F 100% 29.96 in 10.0 mi NW 6.9 mph - N/A   Clear
7:30 AM 57.2 °F 57.2 °F 100% 29.97 in 10.0 mi NW 5.8 mph - N/A   Clear
7:50 AM 59.0 °F 59.0 °F 100% 29.97 in 10.0 mi NW 6.9 mph - N/A   Clear
8:10 AM 62.6 °F 60.8 °F 94% 29.98 in 10.0 mi NW 6.9 mph - N/A   Clear
8:30 AM 64.4 °F 62.6 °F 94% 29.99 in 10.0 mi NW 6.9 mph - N/A   Clear
8:50 AM 64.4 °F 60.8 °F 88% 29.99 in 10.0 mi NNW 8.1 mph - N/A   Clear
9:10 AM 66.2 °F 60.8 °F 83% 30.00 in 10.0 mi NNW 8.1 mph - N/A   Clear
9:30 AM 68.0 °F 60.8 °F 78% 30.01 in 10.0 mi NNW 10.4 mph - N/A   Clear
9:50 AM 68.0 °F 59.0 °F 73% 30.01 in 10.0 mi NNW 12.7 mph 16.1 mph N/A   Clear
10:10 AM 69.8 °F 59.0 °F 68% 30.01 in 10.0 mi North 9.2 mph - N/A   Clear
10:30 AM 71.6 °F 59.0 °F 64% 30.01 in 10.0 mi NNW 12.7 mph 16.1 mph N/A   Clear
10:50 AM 71.6 °F 57.2 °F 60% 30.01 in 10.0 mi NNW 15.0 mph 21.9 mph N/A   Scattered Clouds
11:10 AM 71.6 °F 57.2 °F 60% 30.01 in 10.0 mi NNW 12.7 mph - N/A   Partly Cloudy
11:30 AM 71.6 °F 59.0 °F 64% 30.02 in 10.0 mi NNW 16.1 mph 20.7 mph N/A   Partly Cloudy
11:50 AM 71.6 °F 59.0 °F 64% 30.01 in 10.0 mi NNW 11.5 mph 21.9 mph N/A   Scattered Clouds
12:10 PM 71.6 °F 59.0 °F 64% 30.01 in 10.0 mi NNW 16.1 mph 24.2 mph N/A   Partly Cloudy
12:30 PM 73.4 °F 59.0 °F 61% 30.01 in 10.0 mi NNW 20.7 mph 25.3 mph N/A   Partly Cloudy
12:50 PM 71.6 °F 59.0 °F 64% 30.02 in 10.0 mi NNW 16.1 mph 24.2 mph N/A   Clear
1:10 PM 71.6 °F 59.0 °F 64% 30.01 in 10.0 mi North 17.3 mph 23.0 mph N/A   Scattered Clouds
1:30 PM 71.6 °F 59.0 °F 64% 30.02 in 10.0 mi North 15.0 mph 23.0 mph N/A   Mostly Cloudy
1:50 PM 71.6 °F 59.0 °F 64% 30.02 in 10.0 mi North 11.5 mph 24.2 mph N/A   Scattered Clouds
2:10 PM 71.6 °F 59.0 °F 64% 30.02 in 10.0 mi NNW 17.3 mph 23.0 mph N/A   Scattered Clouds
2:30 PM 71.6 °F 59.0 °F 64% 30.01 in 10.0 mi NNW 16.1 mph 21.9 mph N/A   Mostly Cloudy
2:50 PM 71.6 °F 59.0 °F 64% 30.01 in 10.0 mi North 17.3 mph 21.9 mph N/A   Mostly Cloudy
3:10 PM 71.6 °F 59.0 °F 64% 30.01 in 10.0 mi NNW 16.1 mph 24.2 mph N/A   Partly Cloudy
3:30 PM 71.6 °F 59.0 °F 64% 30.01 in 10.0 mi NNW 18.4 mph 23.0 mph N/A   Partly Cloudy
3:50 PM 71.6 °F 57.2 °F 60% 30.01 in 10.0 mi NNW 16.1 mph 21.9 mph N/A   Clear
4:10 PM 71.6 °F 57.2 °F 60% 30.01 in 10.0 mi NNW 13.8 mph 26.5 mph N/A   Clear
4:30 PM 71.6 °F 57.2 °F 60% 30.01 in 10.0 mi North 16.1 mph 23.0 mph N/A   Clear
4:50 PM 71.6 °F 59.0 °F 64% 30.01 in 10.0 mi North 15.0 mph 20.7 mph N/A   Clear
5:10 PM 71.6 °F 57.2 °F 60% 30.01 in 10.0 mi North 16.1 mph - N/A   Clear
5:30 PM 71.6 °F 57.2 °F 60% 30.01 in 10.0 mi North 16.1 mph 20.7 mph N/A   Clear
5:50 PM 71.6 °F 57.2 °F 60% 30.01 in 10.0 mi North 13.8 mph 21.9 mph N/A   Clear
6:10 PM 69.8 °F 57.2 °F 64% 30.01 in 10.0 mi North 13.8 mph 19.6 mph N/A   Clear
6:30 PM 68.0 °F 57.2 °F 68% 30.01 in 10.0 mi North 11.5 mph - N/A   Clear
6:50 PM 68.0 °F 59.0 °F 73% 30.01 in 10.0 mi North 8.1 mph - N/A   Clear
7:10 PM 66.2 °F 59.0 °F 78% 30.02 in 10.0 mi North 6.9 mph - N/A   Clear
7:30 PM 64.4 °F 59.0 °F 83% 30.02 in 10.0 mi North 5.8 mph - N/A   Clear
7:50 PM 62.6 °F 59.0 °F 88% 30.03 in 10.0 mi North 5.8 mph - N/A   Clear
8:10 PM 60.8 °F 59.0 °F 94% 30.03 in 10.0 mi North 5.8 mph - N/A   Clear
8:30 PM 59.0 °F 59.0 °F 100% 30.04 in 10.0 mi North 5.8 mph - N/A   Clear
8:50 PM 59.0 °F 59.0 °F 100% 30.04 in 10.0 mi North 4.6 mph - N/A   Clear
9:10 PM 59.0 °F 59.0 °F 100% 30.05 in 10.0 mi North 3.5 mph - N/A   Clear
9:30 PM 57.2 °F 57.2 °F 100% 30.05 in 10.0 mi NNW 4.6 mph - N/A   Clear
9:50 PM 55.4 °F 55.4 °F 100% 30.05 in 10.0 mi NNE 8.1 mph - N/A   Clear
10:10 PM 55.4 °F 55.4 °F 100% 30.06 in 10.0 mi NNE 6.9 mph - N/A   Clear
10:30 PM 53.6 °F 53.6 °F 100% 30.07 in 10.0 mi Calm Calm - N/A   Clear
10:50 PM 53.6 °F 53.6 °F 100% 30.07 in 10.0 mi NE 3.5 mph - N/A   Clear
11:10 PM 53.6 °F 53.6 °F 100% 30.07 in 10.0 mi Calm Calm - N/A   Clear
11:30 PM 53.6 °F 53.6 °F 100% 30.07 in 10.0 mi ENE 4.6 mph - N/A   Clear
11:50 PM 53.6 °F 53.6 °F 100% 30.07 in 10.0 mi ENE 6.9 mph - N/A   Clear